Tracking 19794 objects as of 21-Jul-2019
HD Live streaming from Space Station
objects crossing your sky now

FENGYUN 1C DEB

Track FENGYUN 1C DEB now!
10-day predictions


NORAD ID: 35205
Int'l Code: 1999-025DPM
Perigee: 798.9 km
Apogee: 896.7 km
Inclination: 99.0 °
Period: 101.7 minutes
Semi major axis: 7218 km
RCS: 0.0051 m2 (small)
Launch date: May 10, 1999
Source: People's Republic of China (PRC)
Launch site: Taiyaun Space Center, China (TSC)

Note: This is SATELLITE DEBRIS
aabbcc
Your satellite tracking list
Your tracking list is empty




NASA's NSSDC Master Catalog

Two Line Element Set (TLE):
1 35205U 99025DPM 19201.87405244  .00000807  00000-0  42706-3 0  9994
2 35205  98.9721 179.8558 0067740 309.6223  49.8984 14.15475585593739
Source of the keplerian elements: AFSPC